Flight Briefing for CPX333

Departure Arrival
Valley International Airport (KHRL)
Click to view FAA NOTAMS
Austin-Bergstrom International Airport (KAUS)
Click to view FAA NOTAMS
Departure Time Arrival Time
N/A N/A
Aircraft Distance
B767-300BDSF 273nm
Departure METAR Arrival METAR
KHRL 271052Z 14009KT 9SM CLR 23/22 A2988 RMK AO2 SLP119 T02280222 KAUS 271053Z 16005KT 9SM SCT009 BKN016 23/21 A2993 RMK AO2 SLP125 T02280211
Suggested Route
CRP PCKIT


View recent IFR Routes data
Notes



Charts and Procedures

Charts for KHRL
No chart available
Charts for KAUS
No chart available

Windy.com Weather Map